Regional Weather Roundup
Issued by NWS

Home | Current Version | Previous Version | Text Only | Print | Product List | Glossary On
Versions: 1 2 3 4 5 6 7 8 9 10 11 12 13 14 15 16 17 18 19 20 21 22 23 24 25 26 27 28 29 30 31 32 33 34 35 36 37 38 39 40 41 42 43 44 45 46 47 48 49 50
000
ASUS43 KLSX 261307
RWRMO

WEATHER SUMMARY FOR MISSOURI
NATIONAL WEATHER SERVICE SPRINGFIELD MO
800 AM CDT SUN APR 26 2015

NOTE: "FAIR" INDICATES FEW OR NO CLOUDS BELOW 12,000 FEET WITH NO
       SIGNIFICANT WEATHER AND/OR OBSTRUCTIONS TO VISIBILITY.
       CURRENT SKY AND/OR WEATHER CONDITIONS ARE NOT AVAILABLE FOR
       CHILLICOTHE AND FARMINGTON.

MOZ001>031-035>038-043-044-053-054-261400-
...NORTHERN AND WESTERN MISSOURI...

CITY           SKY/WX    TMP DP  RH WIND       PRES   REMARKS
KANSAS CTY INT CLOUDY    47  43  86 E15       29.94R
KANSAS C DTWN  CLOUDY    49  43  80 E13G20    29.94R
LEE`S SUMMIT   CLOUDY    47  43  86 NE16G22   29.94R
ST JOSEPH      CLOUDY    48  42  80 E8        29.97R
CHILLICOTHE      N/A     48  41  76 NE8       29.99R
KIRKSVILLE     SUNNY     44  38  79 NE10      29.98R

$$
MOZ066>068-077>081-088>096-101>105-261400-
...SOUTHWEST MISSOURI...

CITY           SKY/WX    TMP DP  RH WIND       PRES   REMARKS
SPRINGFIELD    CLOUDY    51  48  89 NE13      29.85R
JOPLIN         CLOUDY    52  50  93 NE10      29.85R

$$
MOZ032>034-039>042-045>050-055>058-069>072-261400-
...CENTRAL MISSOURI...

CITY           SKY/WX    TMP DP  RH WIND       PRES   REMARKS
COLUMBIA       CLOUDY    47  44  90 NE10      29.93R FOG
JEFFERSON CITY CLOUDY    48  43  82 NE6       29.93R
ROLLA          CLOUDY    45  44  97 NE9       29.88R FOG
SEDALIA        CLOUDY    48  44  86 NE8       29.94R
WHITEMAN AFB   DRIZZLE   47  45  92 E9        29.92R
WARRENSBURG    CLOUDY    46  43  87 NE9       29.94R
OSAGE BEACH    CLOUDY    46  43  87 NE9       29.90R

$$
MOZ051-052-059>065-261400-
...EAST CENTRAL MISSOURI...

CITY           SKY/WX    TMP DP  RH WIND       PRES   REMARKS
ST LOUIS INTL  CLOUDY    49  40  71 NE8       29.91R
SPIRIT OF STL  CLOUDY    48  41  76 NE12      29.90R
ST CHARLES     PTSUNNY   48  41  76 NE13      29.91R

$$
MOZ072>076-082>087-097>100-106>115-261400-
...SOUTH CENTRAL AND SOUTHEAST MISSOURI...

CITY           SKY/WX    TMP DP  RH WIND       PRES   REMARKS
CAPE GIRARDEAU CLOUDY    50  47  89 N10       29.84R
FARMINGTON     CLOUDY    45  43  93 NE8       29.91R
POPLAR BLUFF   CLOUDY    52  45  77 N15       29.83R
WEST PLAINS    CLOUDY    51  46  83 N9        29.86R

$$



USA.gov is the U.S. government's official web portal to all federal, state and local government web resources and services.